CZ-3C DEB, 40823

Orbit data source: Space-Track

CZ-3C DEB, 40823 is space debris in HEO originally from a launch on Sun, 31 Oct 2010 UTC launched from the Xichang Space Center, China (XSC). Debris objects in space refer to the collection of defunct objects orbiting the Earth. Examples of debris include non-operational satellites, rocket bodies, and fragments generated from explosions, collisions, or faulty payload assembly.

Loading next visibility...
Identifier
40823, 2010-057AQ
Orbit
HEO
Country
Flag of CNCN / PRC
Related business
Manufacturer
CALT
Mission
Spacecraft
Bus & Motor
Unknown
Mass
Unknown
Launch date (UTC)
2010-10-31 (16 years ago)
Launch vehicle
Unknown
Launch site
Xichang Space Center, China (XSC)
Object type
Payload
Rocket body
Debris
Shape & HBR
Unknown shape, 0.2 m
Radar Cross Section
Medium (>0.1 m² and <1 m²)

Expand to show TLE details & history
Last TLE update: 1 day ago

TLE from 1 day ago
0 CZ-3C DEB
1 40823U 10057AQ  26170.82246314 -.00000063  00000-0  12895-2 0  9993
2 40823  20.9235  64.5174 7188358 205.8542  85.4475  2.23709778 93081
Epoch: 2026-06-19T19:44Z
TLE epoch observation values (Epoch: 2026-06-19T19:44:20.815Z)
Latitude
0.00009°
Longitude
-139.58031°
Altitude
27,428.532 km
Speed
2.728 km/s
True Right ascension
04h 18m 12s
True Declination
0° 00' 00"
Sunlit
Object was in daylight at epoch
Visualization orbit readout
Latitude
Unknown
Longitude
Unknown
Altitude
Unknown
Speed
Unknown
Apparent Right ascension
Unknown
Apparent Declination
Unknown
Sunlit
N/A
Visualization observer readout
Local Sidereal Time
13:10:01
Azimuth
Unknown
Elevation
Unknown
Doppler factor
Unknown
Orbital elements
Apogee altitude
36,076.196 km
Perigee altitude
566.47 km
Semi-major axis
24,699.47 km
Eccentricity
0.71884
Inclination
20.9235°
RAAN
64.5174°
Arg. of periapsis
205.8542°
True anomaly
154.12998°
Mean anomaly
85.4475°
Eccentric anomaly
120.81816°
Mean motion
0.55913 °/min
Orbital period
643.86 mins
BSTAR
0.0012895
Loading maneuver chart data...
Computing Atmospheric mass density...
Loading historical data...
Loading historical data...
Loading historical data...
Loading historical data...
Loading historical data...
Loading historical data...
Loading historical data...

Documentation

Showing up to 5 results
|